Snowfall_Accumulation
0.0 0.0 0.0 0.0 0.0 0.0 0.0 0.0 6.0 0.0 0.0 2.4 1.2 0.5 0.0 0.0 0.0 0.0 0.0 0.0 0.0 0.0 0.0 0.0 0.0 0.0 0.0 0.0 0.0 0.0 0.0 0.0 0.0 0.0 0.0 0.0 0.0 0.0 0.0 0.0 0.0 0.0 0.0 0.0
0.0 0.0 0.0 0.0 0.0 0.0 0.0 0.0 0.0 0.0 0.0 2.9 0.9 0.1 0.0 0.0 0.0 0.0 0.0 0.0 0.0 0.0 0.0 0.0 0.0 0.0 0.0 0.0 0.0 0.0 0.0 0.0 0.0 0.0 0.0 0.0 0.0 0.0 0.0 0.0 0.0 0.0 0.0 0.0
0.0 0.0 0.0 0.0 0.0 0.0 0.0 6.5 11.4 0.0 0.0 0.0 0.0 0.1 0.0 0.0 0.0 0.0 0.0 0.0 0.0 0.0 0.0 0.0 0.0 0.0 0.0 0.0 0.0 0.0 0.0 0.0 0.0 0.0 0.0 0.0 0.0 0.0 0.0 0.0 0.0 0.0 0.0 0.0
0.0 0.0 0.0 0.0 0.0 0.0 0.0 8.0 6.5 0.0 5.3 1.2 0.0 0.0 0.0 0.0 0.0 0.0 0.0 0.0 0.0 0.0 0.0 0.0 0.0 0.0 0.0 0.0 0.0 0.0 0.0 0.0 0.0 0.0 0.0 0.0 0.0 0.0 0.0 0.0 0.0 0.0 0.0 0.0
0.0 0.0 0.0 0.0 0.0 0.0 0.0 22.9 1.8 0.0 0.2 0.0 0.2 0.1 0.1 0.0 0.0 0.0 0.0 0.0 0.0 0.0 0.0 0.0 0.0 0.0 0.0 0.0 0.0 0.0 0.0 0.0 0.0 0.0 0.0 0.0 0.0 0.0 0.0 0.0 0.0 0.0 0.0 0.0
0.0 0.0 0.0 0.0 0.0 0.0 0.0 0.0 0.0 0.0 0.2 0.0 0.9 0.3 0.0 0.0 0.0 0.0 0.0 0.0 0.0 0.0 0.0 0.0 0.0 0.0 0.0 0.0 0.0 0.0 0.0 0.0 0.0 0.1 0.0 0.0 0.0 0.0 0.0 0.0 0.0 0.0 0.0 0.0
0.0 0.0 0.0 0.0 0.0 0.0 0.0 0.0 0.0 0.9 3.3 0.3 0.0 0.0 0.0 0.0 0.0 0.0 0.0 0.0 0.0 0.0 0.0 0.0 0.0 0.0 0.0 0.0 0.0 0.0 0.0 0.0 0.0 0.0 0.0 1.0 0.0 0.0 0.0 0.0 0.0 0.0 0.0 0.0
0.0 0.0 0.0 0.0 0.0 0.0 0.0 0.0 0.0 0.1 1.9 0.4 0.1 0.0 0.0 0.0 0.0 0.0 0.0 0.0 0.0 0.0 0.0 0.1 0.0 0.0 0.0 0.0 0.0 0.0 0.0 0.0 1.3 0.5 0.0 0.0 0.0 0.0 0.0 0.0 0.0 0.0 0.0 0.0
0.0 0.0 0.0 0.0 0.0 0.0 0.0 0.0 0.0 0.0 0.9 0.5 0.0 0.0 0.0 0.0 0.0 0.1 0.0 0.0 0.0 0.0 0.1 0.1 0.7 0.1 0.0 0.0 0.0 0.0 0.0 0.0 0.0 1.4 0.9 0.1 0.0 0.0 0.0 0.0 0.0 0.0 0.0 0.0
0.0 0.0 0.0 0.0 0.0 0.0 0.0 0.0 0.0 0.0 4.3 0.0 0.0 0.0 0.1 0.0 0.0 0.2 0.0 0.0 0.0 0.0 0.4 0.8 0.3 0.1 0.0 0.0 0.4 0.4 0.6 0.0 0.3 1.6 1.2 0.0 0.0 0.0 0.0 0.0 0.0 0.0 0.0 0.0
0.0 0.0 0.0 0.0 0.0 0.0 0.0 0.0 0.0 0.0 4.9 0.0 0.0 0.0 0.0 0.0 0.0 0.2 0.0 0.3 0.1 0.2 0.4 0.2 0.0 0.0 0.0 0.0 0.0 0.0 0.2 0.2 0.1 1.6 1.8 0.3 0.0 0.0 0.0 0.0 0.0 0.0 0.0 0.0
0.0 0.0 0.0 0.0 0.0 0.0 0.0 0.0 0.0 0.0 0.0 0.0 0.0 0.0 0.0 0.0 0.0 0.0 0.0 0.0 0.0 0.0 0.0 0.0 0.0 0.0 0.0 0.0 0.0 0.0 0.0 0.0 0.0 0.0 0.0 0.0 0.0 0.0 0.0 0.0 0.0 0.0 0.0 0.0
0.0 0.0 0.0 0.0 0.0 0.0 0.0 0.0 0.0 0.0 2.0 0.0 0.0 0.0 0.0 0.0 0.0 0.0 0.0 0.0 0.0 0.0 0.0 0.0 0.0 0.0 0.0 0.0 0.0 0.0 0.0 0.0 0.0 0.0 0.0 0.0 0.0 0.0 0.0 0.0 0.0 0.0 0.0 0.0
0.0 0.0 0.0 0.0 0.0 0.0 0.0 0.0 0.0 0.0 0.0 3.3 0.2 0.0 0.0 0.0 0.0 0.0 0.0 0.0 0.0 0.0 0.0 0.0 0.0 0.0 0.0 0.0 0.0 0.0 0.0 0.0 0.0 0.0 0.0 0.0 0.0 0.0 0.0 0.0 0.0 0.0 0.0 0.0
0.0 0.0 0.0 0.0 0.0 0.0 0.0 0.0 0.0 0.0 0.0 0.7 0.4 0.0 0.0 0.0 0.0 0.0 0.0 0.0 0.0 0.0 0.0 0.0 0.0 0.0 0.0 0.0 0.0 0.0 0.0 0.0 0.0 0.0 0.0 0.0 0.0 0.0 0.0 0.0 0.0 0.0 0.0 0.0
0.0 0.0 0.0 0.0 0.0 0.0 0.0 1.0 0.0 0.0 0.0 0.6 1.1 0.0 0.0 0.0 0.0 0.0 0.0 0.0 0.0 0.0 0.0 0.0 0.0 0.0 0.0 0.0 0.3 0.0 0.0 0.0 0.0 0.0 0.0 0.0 0.0 0.0 0.0 0.0 0.0 0.0 0.0 0.0
0.0 0.0 0.0 0.0 0.0 0.0 0.0 0.2 0.0 0.0 0.0 0.0 4.0 0.0 0.0 0.0 0.0 0.0 0.0 0.0 0.0 0.0 0.0 0.0 0.0 0.0 0.0 0.7 2.2 0.0 0.0 0.0 0.0 0.0 0.0 0.0 0.0 0.0 0.0 0.0 0.0 0.0 0.0 0.0
0.0 0.0 0.0 0.0 0.0 0.0 0.0 0.0 0.0 0.0 0.0 0.0 4.4 3.6 0.2 0.0 0.0 0.7 0.0 0.0 0.0 0.0 0.0 0.1 0.0 0.0 0.0 0.9 0.0 0.0 0.0 0.0 0.0 0.0 0.0 0.0 0.0 0.0 0.0 0.0 0.0 0.0 0.0 0.1
0.0 0.0 0.0 0.0 0.0 0.0 0.0 0.0 0.0 0.0 0.0 0.7 2.4 5.3 8.0 0.0 0.0 0.0 0.8 0.0 1.2 0.0 0.5 0.2 0.0 0.0 3.8 2.1 0.3 0.0 0.0 0.0 0.0 0.0 0.0 0.0 0.0 0.0 0.0 0.0 0.0 0.2 1.7 1.0
0.0 0.0 0.0 7.5 0.0 0.0 0.0 0.0 0.0 0.0 0.0 0.3 1.7 0.7 1.4 0.0 0.4 0.5 0.4 0.1 0.2 0.5 0.1 0.0 0.4 4.9 2.6 0.9 0.2 0.0 0.0 0.0 0.0 0.0 0.0 0.0 0.3 0.3 0.2 0.7 1.1 1.2 0.8 0.2
0.0 0.0 2.2 0.0 0.0 0.0 0.0 5.2 2.4 1.3 0.9 0.2 0.4 0.0 4.6 1.0 3.9 0.3 0.0 1.5 0.4 1.6 0.0 0.1 2.1 3.5 2.5 1.3 0.7 0.1 0.0 0.0 0.0 0.0 0.0 0.1 0.2 0.8 1.9 1.2 0.1 0.1 0.0 0.1
0.0 0.0 0.0 0.0 0.0 0.6 5.0 6.5 3.2 1.5 2.1 0.7 0.5 0.4 0.2 1.6 0.0 2.4 4.4 5.3 2.5 1.7 0.8 1.3 6.0 3.5 0.4 0.1 0.2 0.2 0.1 0.0 0.1 0.3 0.4 0.5 0.6 0.3 1.0 0.8 0.7 0.7 0.6 0.9
0.0 0.0 0.0 2.8 9.4 14.6 11.0 7.7 3.5 2.6 3.4 0.8 0.6 0.4 0.0 0.6 0.9 7.3 4.5 5.2 10.4 2.3 6.6 7.5 5.1 2.3 0.8 0.8 0.1 0.2 0.2 0.2 0.3 0.5 0.4 0.5 0.5 0.6 0.7 0.8 1.2 1.5 2.3 3.3
1.4 8.0 12.8 14.0 12.3 9.3 8.0 4.1 2.6 2.5 2.0 1.1 3.0 0.9 0.8 1.7 5.9 9.8 11.4 12.2 8.8 15.6 10.9 7.6 5.2 5.3 4.6 2.9 2.3 1.6 3.2 2.2 2.3 2.5 2.6 2.8 3.8 3.9 5.5 6.5 7.7 7.7 10.5 13.4
6.1 6.3 10.9 10.9 10.0 7.8 5.8 4.8 2.9 2.0 1.9 2.1 3.0 2.5 2.7 6.8 10.6 8.7 8.5 9.6 10.8 8.1 8.8 6.9 6.4 6.2 4.7 4.2 4.4 4.8 5.6 5.7 6.3 6.4 6.7 7.9 8.0 7.4 9.7 10.5 10.0 8.8 9.6 9.8
4.3 6.0 9.3 6.3 6.2 7.6 6.4 5.8 5.5 3.0 4.2 3.7 3.7 5.0 6.5 9.0 7.6 4.6 7.0 5.0 7.8 8.4 7.1 5.1 5.0 5.4 5.7 6.3 6.4 7.1 7.3 6.8 6.8 7.0 6.6 6.9 7.3 6.7 7.5 7.8 7.4 7.8 6.3 6.7
3.8 8.8 8.4 8.4 7.0 8.5 7.9 6.2 5.0 2.8 2.9 5.5 4.5 5.2 6.8 2.9 3.6 7.2 6.5 9.1 8.6 7.3 8.5 9.1 8.0 8.4 9.1 8.4 8.6 9.1 8.6 7.7 7.3 6.8 6.5 7.0 6.6 4.7 2.8 4.7 6.8 5.0 4.8 4.4